• în Republica Moldova
  • Lista ţărilor
  • Pe 7 zile
  • Temperatura apei
  • Hartă satelitară
  • Meteo pe hartă
  • Widget-uri
  • user-avatar
    Intrare

    Meteo pe oră la Dwor

    Astăzi, 20 Ianuarie, Duminică

    Timp Temperatura Precipitaţii Vânt Presiune Umiditate
    00:00 -6°C° 0 mm 2 m/s 751 mmHg 91%
    01:00 -6°C° 0 mm 2 m/s 751 mmHg 91%
    02:00 -4°C° 0 mm 1 m/s 751 mmHg 91%
    03:00 -4°C° 0 mm 1 m/s 750 mmHg 91%
    04:00 -6°C° 0 mm 2 m/s 750 mmHg 92%
    05:00 -7°C° 0 mm 2 m/s 750 mmHg 92%
    06:00 -6°C° 0 mm 1 m/s 750 mmHg 92%
    07:00 -6°C° 0 mm 1 m/s 749 mmHg 92%
    08:00 -6°C° 0 mm 1 m/s 749 mmHg 92%
    09:00 -4°C° 0 mm 1 m/s 749 mmHg 91%
    10:00 -4°C° 0 mm 1 m/s 749 mmHg 89%
    11:00 -3°C° 0 mm 1 m/s 749 mmHg 87%
    12:00 -3°C° 0 mm 1 m/s 749 mmHg 85%
    13:00 -4°C° 0 mm 2 m/s 749 mmHg 83%
    14:00 -2°C° 0 mm 1 m/s 748 mmHg 81%
    15:00 -2°C° 0 mm 1 m/s 748 mmHg 84%
    16:00 -5°C° 0 mm 2 m/s 748 mmHg 86%
    17:00 -5°C° 0 mm 2 m/s 748 mmHg 88%
    18:00 -6°C° 0 mm 2 m/s 748 mmHg 88%
    19:00 -6°C° 0 mm 2 m/s 748 mmHg 87%
    20:00 -6°C° 0 mm 2 m/s 748 mmHg 87%
    21:00 -6°C° 0 mm 2 m/s 748 mmHg 88%
    22:00 -6°C° 0 mm 2 m/s 749 mmHg 88%
    23:00 -7°C° 0 mm 3 m/s 749 mmHg 88%

    Mâine, 21 Ianuarie, Luni

    Timp Temperatura Precipitaţii Vânt Presiune Umiditate
    00:00 -7°C° 0 mm 3 m/s 749 mmHg 89%
    01:00 -7°C° 0 mm 3 m/s 749 mmHg 91%
    02:00 -7°C° 0 mm 3 m/s 749 mmHg 93%
    03:00 -6°C° 0 mm 2 m/s 749 mmHg 94%
    04:00 -6°C° 0 mm 2 m/s 750 mmHg 95%
    05:00 -6°C° 0 mm 2 m/s 750 mmHg 96%
    06:00 -6°C° 0 mm 2 m/s 750 mmHg 96%
    07:00 -6°C° 0 mm 2 m/s 750 mmHg 96%
    08:00 -6°C° 0 mm 1 m/s 750 mmHg 96%
    09:00 -6°C° 0 mm 2 m/s 751 mmHg 95%
    10:00 -5°C° 0 mm 2 m/s 751 mmHg 94%
    11:00 -5°C° 0 mm 2 m/s 751 mmHg 92%
    12:00 -4°C° 0 mm 2 m/s 751 mmHg 92%
    13:00 -4°C° 0 mm 2 m/s 751 mmHg 92%
    14:00 -4°C° 0 mm 3 m/s 751 mmHg 92%
    15:00 -3°C° 0 mm 2 m/s 751 mmHg 92%
    16:00 -4°C° 0 mm 2 m/s 751 mmHg 92%
    17:00 -4°C° 0 mm 2 m/s 751 mmHg 93%
    18:00 -4°C° 0 mm 2 m/s 751 mmHg 93%
    19:00 -4°C° 0 mm 2 m/s 751 mmHg 94%
    20:00 -4°C° 0 mm 2 m/s 751 mmHg 94%
    21:00 -4°C° 0 mm 2 m/s 751 mmHg 94%
    22:00 -4°C° 0 mm 2 m/s 751 mmHg 94%
    23:00 -5°C° 0 mm 2 m/s 751 mmHg 94%

    Poimâine, 22 Ianuarie, Marţi

    Timp Temperatura Precipitaţii Vânt Presiune Umiditate
    00:00 -5°C° 0 mm 2 m/s 751 mmHg 94%
    01:00 -5°C° 0 mm 2 m/s 750 mmHg 94%
    02:00 -5°C° 0 mm 2 m/s 750 mmHg 93%
    03:00 -5°C° 0 mm 2 m/s 750 mmHg 93%
    04:00 -5°C° 0 mm 2 m/s 750 mmHg 93%
    05:00 -6°C° 0 mm 2 m/s 749 mmHg 93%
    06:00 -6°C° 0 mm 2 m/s 749 mmHg 93%
    07:00 -6°C° 0 mm 2 m/s 749 mmHg 93%
    08:00 -6°C° 0 mm 2 m/s 749 mmHg 92%
    09:00 -6°C° 0 mm 2 m/s 749 mmHg 90%
    10:00 -6°C° 0 mm 3 m/s 749 mmHg 88%
    11:00 -6°C° 0 mm 3 m/s 749 mmHg 85%
    12:00 -6°C° 0 mm 3 m/s 748 mmHg 84%
    13:00 -7°C° 0 mm 4 m/s 748 mmHg 82%
    14:00 -7°C° 0 mm 4 m/s 747 mmHg 81%
    15:00 -7°C° 0 mm 4 m/s 747 mmHg 83%
    16:00 -7°C° 0 mm 4 m/s 746 mmHg 84%
    17:00 -8°C° 0 mm 4 m/s 746 mmHg 86%
    18:00 -8°C° 0 mm 4 m/s 746 mmHg 86%
    19:00 -8°C° 0 mm 4 m/s 745 mmHg 86%
    20:00 -8°C° 0 mm 4 m/s 745 mmHg 86%
    21:00 -8°C° 0 mm 4 m/s 745 mmHg 86%
    22:00 -8°C° 0 mm 4 m/s 744 mmHg 87%
    23:00 -7°C° 0 mm 3 m/s 744 mmHg 87%

    23 Ianuarie, Miercuri

    Timp Temperatura Precipitaţii Vânt Presiune Umiditate
    00:00 -7°C° 0 mm 3 m/s 744 mmHg 88%
    01:00 -7°C° 0 mm 3 m/s 744 mmHg 89%
    02:00 -8°C° 0 mm 3 m/s 743 mmHg 90%
    03:00 -8°C° 0 mm 3 m/s 743 mmHg 89%
    04:00 -8°C° 0 mm 3 m/s 743 mmHg 88%
    05:00 -8°C° 0 mm 3 m/s 742 mmHg 86%
    06:00 -8°C° 0 mm 3 m/s 742 mmHg 88%
    07:00 -8°C° 0 mm 3 m/s 742 mmHg 89%
    08:00 -8°C° 0 mm 3 m/s 742 mmHg 90%
    09:00 -9°C° 0 mm 4 m/s 742 mmHg 90%
    10:00 -9°C° 0 mm 4 m/s 742 mmHg 89%
    11:00 -9°C° 0 mm 4 m/s 742 mmHg 89%
    12:00 -9°C° 0 mm 4 m/s 742 mmHg 88%
    13:00 -8°C° 0 mm 4 m/s 742 mmHg 87%
    14:00 -8°C° 0 mm 4 m/s 742 mmHg 86%
    15:00 -8°C° 0 mm 4 m/s 742 mmHg 87%
    16:00 -9°C° 0 mm 4 m/s 742 mmHg 88%
    17:00 -10°C° 0 mm 5 m/s 742 mmHg 88%
    18:00 -10°C° 0 mm 5 m/s 742 mmHg 89%
    19:00 -11°C° 0 mm 5 m/s 743 mmHg 89%
    20:00 -11°C° 0 mm 5 m/s 743 mmHg 90%
    21:00 -11°C° 0 mm 5 m/s 743 mmHg 89%
    22:00 -11°C° 0 mm 5 m/s 743 mmHg 88%
    23:00 -9°C° 0 mm 4 m/s 743 mmHg 87%

    24 Ianuarie, Joi

    Timp Temperatura Precipitaţii Vânt Presiune Umiditate
    00:00 -9°C° 0 mm 4 m/s 744 mmHg 87%
    01:00 -9°C° 0 mm 4 m/s 744 mmHg 87%
    02:00 -9°C° 0 mm 4 m/s 744 mmHg 87%
    03:00 -9°C° 0 mm 4 m/s 744 mmHg 87%
    04:00 -9°C° 0 mm 4 m/s 744 mmHg 87%
    05:00 -9°C° 0 mm 4 m/s 744 mmHg 88%
    06:00 -9°C° 0 mm 4 m/s 744 mmHg 88%
    07:00 -9°C° 0 mm 4 m/s 744 mmHg 89%
    08:00 -9°C° 0 mm 4 m/s 745 mmHg 90%
    09:00 -9°C° 0 mm 4 m/s 745 mmHg 90%
    10:00 -8°C° 0 mm 4 m/s 745 mmHg 90%
    11:00 -8°C° 0 mm 4 m/s 745 mmHg 90%
    12:00 -8°C° 0.1 mm 4 m/s 745 mmHg 89%
    13:00 -8°C° 0.1 mm 4 m/s 745 mmHg 89%
    14:00 -7°C° 0.1 mm 4 m/s 745 mmHg 89%
    15:00 -7°C° 0.1 mm 4 m/s 745 mmHg 90%
    16:00 -7°C° 0.1 mm 4 m/s 745 mmHg 90%
    17:00 -7°C° 0.1 mm 4 m/s 745 mmHg 91%
    18:00 -7°C° 0.1 mm 4 m/s 745 mmHg 91%
    19:00 -8°C° 0.1 mm 4 m/s 745 mmHg 92%
    20:00 -8°C° 0.1 mm 4 m/s 746 mmHg 92%
    21:00 -8°C° 0.2 mm 4 m/s 746 mmHg 92%
    22:00 -8°C° 0.2 mm 4 m/s 746 mmHg 93%
    23:00 -8°C° 0.2 mm 4 m/s 746 mmHg 93%

    25 Ianuarie, Vineri

    Timp Temperatura Precipitaţii Vânt Presiune Umiditate
    00:00 -8°C° 0.2 mm 4 m/s 746 mmHg 93%
    01:00 -7°C° 0.2 mm 3 m/s 746 mmHg 93%
    02:00 -7°C° 0.2 mm 3 m/s 745 mmHg 93%
    03:00 -7°C° 0.1 mm 3 m/s 745 mmHg 94%
    04:00 -7°C° 0.1 mm 3 m/s 745 mmHg 94%
    05:00 -7°C° 0.1 mm 3 m/s 745 mmHg 94%
    06:00 -7°C° 0.1 mm 3 m/s 745 mmHg 94%
    07:00 -7°C° 0.1 mm 3 m/s 745 mmHg 94%
    08:00 -7°C° 0.1 mm 3 m/s 745 mmHg 94%
    09:00 -7°C° 0 mm 3 m/s 745 mmHg 94%
    10:00 -6°C° 0 mm 3 m/s 745 mmHg 93%
    11:00 -5°C° 0 mm 2 m/s 746 mmHg 93%
    12:00 -5°C° 0.1 mm 2 m/s 746 mmHg 92%
    13:00 -4°C° 0.1 mm 2 m/s 745 mmHg 92%
    14:00 -2°C° 0.1 mm 1 m/s 745 mmHg 92%
    15:00 -2°C° 0 mm 1 m/s 745 mmHg 93%
    16:00 -2°C° 0 mm 1 m/s 745 mmHg 94%
    17:00 -2°C° 0 mm 1 m/s 745 mmHg 95%
    18:00 -2°C° 0 mm 1 m/s 745 mmHg 95%
    19:00 -3°C° 0 mm 1 m/s 745 mmHg 95%
    20:00 -3°C° 0 mm 1 m/s 745 mmHg 95%
    21:00 -3°C° 0 mm 1 m/s 746 mmHg 96%
    22:00 -3°C° 0 mm 1 m/s 746 mmHg 96%
    23:00 -3°C° 0 mm 1 m/s 746 mmHg 96%
    Arată mai mult